This is the latest recevied weather packets stored in our database for station/object DO6MJ-1. If no packets are shown the sender has not sent any weather packets the latest 10 day(s).
| Time | Temp. | Humidity | Pressure | Rain* | Wind** | Luminosity | Snow |
|---|---|---|---|---|---|---|---|
| 1778220243 | 13.33° C | 78% | 1012.3 hPa | 0 mm | - | - | - |
| 1778219042 | 12.22° C | 89% | 1012.4 hPa | 0 mm | - | - | - |
| 1778217842 | 10.56° C | 95% | 1012.3 hPa | 0 mm | - | - | - |
| 1778216642 | 7.22° C | 95% | 1012.2 hPa | 0 mm | - | - | - |
| 1778215442 | 3.33° C | 92% | 1012.1 hPa | 0 mm | - | - | - |
| 1778214241 | 2.78° C | 92% | 1011.9 hPa | 0 mm | - | - | - |
| 1778213041 | 2.22° C | 92% | 1011.9 hPa | 0 mm | - | - | - |
| 1778211841 | 2.22° C | 91% | 1011.9 hPa | 0 mm | - | - | - |
| 1778210640 | 2.78° C | 91% | 1011.8 hPa | 0 mm | - | - | - |
| 1778209440 | 2.78° C | 91% | 1012 hPa | 0 mm | - | - | - |
| 1778208717 | 3.33° C | 91% | 1011.9 hPa | 0 mm | - | - | - |
| 1778208240 | 3.33° C | 91% | 1011.9 hPa | 0 mm | - | - | - |
| 1778207041 | 3.33° C | 91% | 1011.8 hPa | 0 mm | - | - | - |
| 1778205839 | 3.89° C | 92% | 1011.6 hPa | 0 mm | - | - | - |
| 1778204639 | 3.89° C | 92% | 1011.6 hPa | 0 mm | - | - | - |
| 1778203440 | 3.89° C | 92% | 1011.6 hPa | 0 mm | - | - | - |
| 1778202238 | 3.89° C | 92% | 1011.6 hPa | 0 mm | - | - | - |
| 1778201039 | 3.89° C | 91% | 1011.7 hPa | 0 mm | - | - | - |
| 1778199838 | 3.89° C | 91% | 1011.6 hPa | 0 mm | - | - | - |
| 1778198638 | 4.44° C | 91% | 1011.5 hPa | 0 mm | - | - | - |
| 1778197437 | 4.44° C | 90% | 1011.7 hPa | 0 mm | - | - | - |
| 1778196237 | 4.44° C | 90% | 1011.7 hPa | 0 mm | - | - | - |
| 1778195037 | 5° C | 90% | 1011.5 hPa | 0 mm | - | - | - |
| 1778193837 | 5.56° C | 89% | 1011.4 hPa | 0 mm | - | - | - |
| 1778192636 | 5.56° C | 89% | 1011.5 hPa | 0 mm | - | - | - |
* Rain latest hour (hover to see other rain measurements)
** Current wind speed in m/s (hover to see current wind gust speed)